Weather History for St. Johns, AZ

Change the Weather History Date:

Friday, November 30, 2012

  Actual Average (KSOW) Record (KSOW)
Temperature  
Mean Temperature 42 °F -  
Max Temperature 55 °F 47 °F 67 °F (1966)
Min Temperature 28 °F 28 °F -3 °F (1976)
Degree Days  
Heating Degree Days 24    
Moisture  
Dew Point 21 °F    
Average Humidity 46    
Maximum Humidity 95    
Minimum Humidity 14    
Precipitation  
Precipitation 0.00 in - - ()
Sea Level Pressure  
Sea Level Pressure 30.13 in    
Wind  
Wind Speed 4 mph (SSW)    
Max Wind Speed 16 mph    
Max Gust Speed 21 mph    
Visibility 10 miles    
Events      
Averages and records for this station are not official NWS values.
T = Trace of Precipitation, MM = Missing Value Source: NWS Daily Summary

Daily Weather History Graph

Daily Weather History Graph

Search for Another Location

Airport:

Trip Planner

Search our weather history database for the weather conditions in past years. The results will help you decide how hot, cold, wet, or windy it might be!

Date:

Astronomy

Nov. 30, 2012 Rise Set
Actual Time 7:05 AM MST 5:07 PM MST
Civil Twilight 6:38 AM MST 5:34 PM MST
Nautical Twilight 6:07 AM MST 6:05 PM MST
Astronomical Twilight 5:36 AM MST 6:36 PM MST
Moon 7:04 PM MST (11/30) 8:40 AM MST (11/30)
Length of Visible Light 10h 56m
Length of Day
10h 01m
Waning Gibbous, 96% of the Moon is Illuminated
Nov 30
Waning Gibbous
Dec 6
Last Quarter
Dec 13
New
Dec 19
First Quarter
Dec 28
Full

Hourly Weather History & Observations

Time (MST) Temp. Windchill Dew Point Humidity Pressure Visibility Wind Dir Wind Speed Gust Speed Precip Events Conditions
12:54 AM 36.0 °F 31.1 °F 21.0 °F 55% 30.12 in 10.0 mi South 5.8 mph - N/A   Clear
1:54 AM 35.1 °F 31.0 °F 19.9 °F 54% 30.11 in 10.0 mi SSE 4.6 mph - N/A   Clear
2:54 AM 30.9 °F 27.5 °F 18.0 °F 59% 30.12 in 10.0 mi South 3.5 mph - N/A   Clear
3:54 AM 27.0 °F - 16.0 °F 63% 30.14 in 10.0 mi Calm Calm - N/A   Clear
4:54 AM 25.0 °F 20.7 °F 16.0 °F 69% 30.16 in 10.0 mi West 3.5 mph - N/A   Clear
5:54 AM 23.0 °F - 14.0 °F 68% 30.21 in 10.0 mi Calm Calm - N/A   Clear
6:54 AM 28.0 °F - 16.0 °F 61% 30.21 in 10.0 mi Calm Calm - N/A   Clear
7:54 AM 26.1 °F - 16.0 °F 66% 30.22 in 9.0 mi Calm Calm - N/A   Clear
8:54 AM 36.0 °F - 19.0 °F 50% 30.21 in 10.0 mi Calm Calm - N/A   Clear
9:54 AM 42.1 °F - 19.0 °F 40% 30.17 in 10.0 mi Calm Calm - N/A   Clear
10:54 AM 48.9 °F - 18.0 °F 29% 30.17 in 10.0 mi Calm Calm - N/A   Clear
11:54 AM 57.0 °F - 19.0 °F 23% 30.13 in 10.0 mi Calm Calm - N/A   Clear
12:54 PM 60.1 °F - 25.0 °F 26% 30.06 in 10.0 mi Variable 4.6 mph - N/A   Clear
1:54 PM 64.0 °F - 27.0 °F 25% 30.01 in 10.0 mi NNE 5.8 mph - N/A   Clear
2:54 PM 66.0 °F - 23.0 °F 20% 30.01 in 10.0 mi WNW 8.1 mph - N/A   Clear
3:54 PM 66.9 °F - 15.1 °F 14% 30.02 in 10.0 mi WSW 16.1 mph 20.7 mph N/A   Clear
4:54 PM 60.1 °F - 19.0 °F 20% 30.07 in 10.0 mi SW 6.9 mph - N/A   Clear
5:54 PM 53.1 °F - 18.0 °F 25% 30.12 in 10.0 mi SSW 3.5 mph - N/A   Clear
6:54 PM 51.1 °F - 21.0 °F 31% 30.12 in 10.0 mi East 8.1 mph - N/A   Clear
7:54 PM 45.0 °F 40.6 °F 21.0 °F 39% 30.15 in 10.0 mi SSW 8.1 mph - N/A   Clear
8:54 PM 50.0 °F - 21.2 °F 32% 30.19 in 10.0 mi SSW 4.6 mph - N/A   Clear
9:54 PM 46.9 °F - 23.0 °F 39% 30.12 in 10.0 mi Calm Calm - N/A   Clear
10:54 PM 43.0 °F 41.3 °F 23.0 °F 45% 30.12 in 10.0 mi South 3.5 mph - N/A   Clear
11:54 PM 37.0 °F - 15.1 °F 41% 30.09 in 10.0 mi Calm Calm - N/A   Clear